カタログに戻る

STARLINK-31390

運用中通信VLEO
NORAD 58937·PAYLOAD·🇺🇸 United States

打ち上げ Feb 10, 2024 から Vandenberg Space Force Base

Loading…

次のパス (今後24時間)

TLE

最新Source: CelesTrak SupGP

元期: Sep 15, 2026, 03:14 UTC

1 58937C 24027G   26258.13520833  .00026230  00000+0  77509-3 0  2586
2 58937  53.1570 148.7784 0001247  85.1374 355.0319 15.34372191    19

AllMySatでSTARLINK-31390をリアルタイム追跡

Download on the App Store